sat.trackr.live / text

‹ back to catalog

STARLINK-5218

NORAD 55636 · 2023-021J

PAYLOAD ACTIVE UNKNOWN

§ Identity

Operator
Country
US
Launch date
2023-02-17
Launch site
AFWTR
Launch vehicle
Mass (kg)
RCS (m²)

Purposes: comms

External: N2YO · Heavens-Above · Gunter

§ Orbital elements

Epoch: 2026-05-25T00:31:10.077888Z

Period
96.11 min
Inclination
70.0004°
Eccentricity
0.0002696
Mean motion
14.98329296 rev/d
Perigee alt
570.2 km
Apogee alt
573.9 km
Semi-major
6,950.2 km
B*
3.4163e-6
RAAN
11.9300°
Arg perigee
269.0043°
Mean anomaly
91.0807°
Rev number
17,973

§ Raw data

STARLINK-52181 55636U 23021J   26145.02164442 -.00000052  00000+0  34163-5 0  99932 55636  70.0004  11.9300 0002696 269.0043  91.0807 14.98329296179734

JSON: /api/v1/satellites/55636 · /tle

For live sub-satellite position, see the globe view (requires WebGL).

§ Visibility from observer

Set your observer location to see the next 7 days of passes ≥ 10°. The values pass through the URL so the page stays shareable.

No JS? Fill the form by hand. The geolocation button needs JavaScript.